Weather History for Brunswick, GA

Change the Weather History Date:

Wednesday, January 11, 2012

  Actual Average Record
Temperature  
Mean Temperature 66 °F -  
Max Temperature 69 °F 59 °F 84 °F (1972)
Min Temperature 62 °F 39 °F 19 °F (1982)
Growing Degree Days 16 (Base 50)    
Moisture  
Dew Point 59 °F    
Average Humidity 82    
Maximum Humidity 94    
Minimum Humidity 60    
Precipitation  
Precipitation 0.00 in - - ()
Sea Level Pressure  
Sea Level Pressure 29.79 in    
Wind  
Wind Speed 9 mph (South)    
Max Wind Speed 16 mph    
Max Gust Speed 23 mph    
Visibility 10 miles    
Events Thunderstorm    
Averages and records for this station are not official NWS values.
T = Trace of Precipitation, MM = Missing Value Source: NWS Daily Summary

Daily Weather History Graph

Daily Weather History Graph

Search for Another Location

Airport:

Trip Planner

Search our weather history database for the weather conditions in past years. The results will help you decide how hot, cold, wet, or windy it might be!

Date:

Astronomy

Jan. 11, 2012 Rise Set
Actual Time 7:25 AM EST 5:41 PM EST
Civil Twilight 6:59 AM EST 6:08 PM EST
Nautical Twilight 6:29 AM EST 6:38 PM EST
Astronomical Twilight 5:59 AM EST 7:07 PM EST
Moon 8:25 PM EST (1/11) 8:48 AM EST (1/11)
Length of Visible Light 11h 09m
Length of Day
10h 16m
Waning Gibbous, 93% of the Moon is Illuminated
Jan 11
Waning Gibbous
Jan 16
Last Quarter
Jan 23
New
Jan 30
First Quarter
Feb 7
Full

Hourly Weather History & Observations

Time (EST) Temp. Dew Point Humidity Pressure Visibility Wind Dir Wind Speed Gust Speed Precip Events Conditions
12:15 AM 64.4 °F 59.0 °F 83% 29.91 in 10.0 mi SSE 10.4 mph - N/A   Mostly Cloudy
12:35 AM 64.4 °F 59.0 °F 83% 29.90 in 10.0 mi SSE 8.1 mph - N/A   Mostly Cloudy
12:55 AM 64.4 °F 60.8 °F 88% 29.92 in 10.0 mi South 10.4 mph - N/A   Overcast
1:15 AM 64.4 °F 60.8 °F 88% 29.90 in 10.0 mi South 10.4 mph 17.3 mph N/A   Overcast
1:35 AM 64.4 °F 60.8 °F 88% 29.88 in 10.0 mi South 10.4 mph - N/A   Overcast
1:55 AM 64.4 °F 60.8 °F 88% 29.88 in 10.0 mi South 12.7 mph 19.6 mph N/A   Overcast
2:15 AM 64.4 °F 60.8 °F 88% 29.87 in 10.0 mi South 12.7 mph 18.4 mph N/A   Overcast
2:35 AM 64.4 °F 59.0 °F 83% 29.86 in 10.0 mi South 13.8 mph 18.4 mph N/A   Overcast
2:55 AM 64.4 °F 59.0 °F 83% 29.87 in 10.0 mi South 11.5 mph 18.4 mph N/A   Overcast
3:15 AM 64.4 °F 59.0 °F 83% 29.85 in 10.0 mi South 8.1 mph - N/A   Scattered Clouds
3:35 AM 64.4 °F 59.0 °F 83% 29.85 in 10.0 mi South 9.2 mph - N/A   Clear
3:55 AM 62.6 °F 59.0 °F 88% 29.84 in 10.0 mi SSE 6.9 mph - N/A   Scattered Clouds
4:15 AM 62.6 °F 59.0 °F 88% 29.83 in 10.0 mi SSE 6.9 mph - N/A   Mostly Cloudy
4:35 AM 62.6 °F 59.0 °F 88% 29.83 in 10.0 mi SSE 6.9 mph - N/A   Scattered Clouds
4:55 AM 62.6 °F 59.0 °F 88% 29.83 in 10.0 mi South 4.6 mph - N/A   Mostly Cloudy
5:15 AM 62.6 °F 59.0 °F 88% 29.84 in 10.0 mi South 6.9 mph - N/A   Overcast
5:35 AM 62.6 °F 59.0 °F 88% 29.84 in 10.0 mi SSE 5.8 mph - N/A   Overcast
5:55 AM 62.6 °F 59.0 °F 88% 29.84 in 10.0 mi South 5.8 mph - N/A   Overcast
6:15 AM 62.6 °F 59.0 °F 88% 29.84 in 10.0 mi SSE 5.8 mph - N/A   Overcast
6:35 AM 62.6 °F 59.0 °F 88% 29.83 in 10.0 mi SSE 6.9 mph - N/A   Scattered Clouds
6:55 AM 62.6 °F 59.0 °F 88% 29.83 in 10.0 mi SSE 6.9 mph - N/A   Scattered Clouds
7:15 AM 62.6 °F 59.0 °F 88% 29.83 in 10.0 mi SSE 6.9 mph - N/A   Mostly Cloudy
7:35 AM 62.6 °F 59.0 °F 88% 29.82 in 10.0 mi SSE 6.9 mph - N/A   Mostly Cloudy
7:55 AM 62.6 °F 59.0 °F 88% 29.81 in 10.0 mi SE 10.4 mph - N/A   Mostly Cloudy
8:15 AM 62.6 °F 59.0 °F 88% 29.81 in 10.0 mi SSE 8.1 mph - N/A   Scattered Clouds
8:35 AM 64.4 °F 59.0 °F 83% 29.81 in 10.0 mi SSE 8.1 mph - N/A   Mostly Cloudy
8:55 AM 64.4 °F 59.0 °F 83% 29.81 in 10.0 mi SSE 9.2 mph 16.1 mph N/A   Scattered Clouds
9:15 AM 64.4 °F 59.0 °F 83% 29.81 in 10.0 mi SSE 9.2 mph - N/A   Mostly Cloudy
9:35 AM 64.4 °F 59.0 °F 83% 29.81 in 10.0 mi SSE 11.5 mph 16.1 mph N/A   Mostly Cloudy
9:55 AM 66.2 °F 59.0 °F 78% 29.81 in 10.0 mi SSE 9.2 mph - N/A   Scattered Clouds
10:15 AM 66.2 °F 59.0 °F 78% 29.82 in 10.0 mi SSE 9.2 mph 19.6 mph N/A Thunderstorm Scattered Clouds
10:35 AM 68.0 °F 59.0 °F 73% 29.82 in 10.0 mi SSE 9.2 mph - N/A   Mostly Cloudy
10:55 AM 66.2 °F 59.0 °F 78% 29.82 in 10.0 mi SSW 10.4 mph - N/A Thunderstorm Thunderstorm
11:15 AM 64.4 °F 60.8 °F 88% 29.82 in 5.0 mi SSW 8.1 mph - N/A Thunderstorm Overcast
11:35 AM 62.6 °F 60.8 °F 94% 29.82 in 4.0 mi South 5.8 mph - N/A Thunderstorm Overcast
11:55 AM 62.6 °F 60.8 °F 94% 29.77 in 4.0 mi SE 5.8 mph - N/A Thunderstorm Thunderstorm
12:15 PM 62.6 °F 60.8 °F 94% 29.75 in 5.0 mi SE 8.1 mph - N/A Thunderstorm Overcast
12:35 PM 62.6 °F 60.8 °F 94% 29.73 in 10.0 mi SE 6.9 mph - N/A   Overcast
12:55 PM 62.6 °F 60.8 °F 94% 29.71 in 10.0 mi SE 5.8 mph - N/A   Overcast
1:15 PM 64.4 °F 60.8 °F 88% 29.70 in 10.0 mi SSE 9.2 mph - N/A   Overcast
1:35 PM 64.4 °F 60.8 °F 88% 29.69 in 10.0 mi SSE 9.2 mph - N/A   Overcast
1:55 PM 62.6 °F 60.8 °F 94% 29.69 in 10.0 mi South 9.2 mph - N/A   Overcast
2:15 PM 64.4 °F 62.6 °F 94% 29.69 in 10.0 mi South 8.1 mph - N/A   Overcast
2:35 PM 68.0 °F 62.6 °F 83% 29.69 in 10.0 mi SW 12.7 mph 17.3 mph N/A   Overcast
2:55 PM 68.0 °F 62.6 °F 83% 29.68 in 10.0 mi WSW 11.5 mph 21.9 mph N/A   Overcast
3:15 PM 69.8 °F 60.8 °F 73% 29.68 in 10.0 mi SW 10.4 mph - N/A   Mostly Cloudy
3:35 PM 69.8 °F 59.0 °F 68% 29.68 in 10.0 mi SW 15.0 mph 20.7 mph N/A   Scattered Clouds
3:55 PM 69.8 °F 57.2 °F 64% 29.68 in 10.0 mi SW 16.1 mph 23.0 mph N/A   Scattered Clouds
4:15 PM 69.8 °F 55.4 °F 60% 29.67 in 10.0 mi SW 13.8 mph 19.6 mph N/A   Scattered Clouds
4:35 PM 69.8 °F 55.4 °F 60% 29.68 in 10.0 mi SW 13.8 mph 19.6 mph N/A   Scattered Clouds
4:55 PM 68.0 °F 55.4 °F 64% 29.68 in 10.0 mi SW 12.7 mph 21.9 mph N/A   Scattered Clouds
5:15 PM 68.0 °F 53.6 °F 60% 29.68 in 10.0 mi SW 11.5 mph - N/A   Scattered Clouds
5:35 PM 66.2 °F 53.6 °F 64% 29.69 in 10.0 mi SSW 13.8 mph 18.4 mph N/A   Scattered Clouds
5:55 PM 64.4 °F 53.6 °F 68% 29.70 in 10.0 mi SW 10.4 mph - N/A   Clear
6:15 PM 64.4 °F 53.6 °F 68% 29.70 in 10.0 mi SW 9.2 mph - N/A   Clear
6:35 PM 62.6 °F 53.6 °F 72% 29.71 in 10.0 mi SW 9.2 mph - N/A   Scattered Clouds
6:55 PM 62.6 °F 53.6 °F 72% 29.72 in 10.0 mi SW 10.4 mph - N/A   Scattered Clouds
7:15 PM 62.6 °F 51.8 °F 68% 29.72 in 10.0 mi WSW 10.4 mph - N/A   Mostly Cloudy
7:35 PM 62.6 °F 51.8 °F 68% 29.73 in 10.0 mi SW 12.7 mph - N/A   Mostly Cloudy
7:55 PM 60.8 °F 51.8 °F 72% 29.73 in 10.0 mi SW 10.4 mph - N/A   Scattered Clouds
8:15 PM 60.8 °F 51.8 °F 72% 29.74 in 10.0 mi SW 6.9 mph - N/A   Clear
8:35 PM 59.0 °F 51.8 °F 77% 29.75 in 10.0 mi SW 8.1 mph - N/A   Clear
8:55 PM 59.0 °F 50.0 °F 72% 29.76 in 10.0 mi SW 6.9 mph - N/A   Clear
9:15 PM 57.2 °F 50.0 °F 77% 29.77 in 10.0 mi WSW 6.9 mph - N/A   Clear
9:35 PM 59.0 °F 50.0 °F 72% 29.77 in 10.0 mi SW 8.1 mph - N/A   Mostly Cloudy
9:55 PM 59.0 °F 50.0 °F 72% 29.78 in 10.0 mi WSW 6.9 mph - N/A   Mostly Cloudy
10:15 PM 55.4 °F 50.0 °F 82% 29.78 in 10.0 mi SW 5.8 mph - N/A   Scattered Clouds
10:35 PM 57.2 °F 50.0 °F 77% 29.79 in 10.0 mi WSW 4.6 mph - N/A   Mostly Cloudy
10:55 PM 57.2 °F 50.0 °F 77% 29.80 in 10.0 mi WSW 4.6 mph - N/A   Overcast
11:15 PM 57.2 °F 50.0 °F 77% 29.80 in 10.0 mi WSW 5.8 mph - N/A   Overcast
11:35 PM 57.2 °F 51.8 °F 82% 29.79 in 10.0 mi WSW 5.8 mph - N/A   Overcast
11:55 PM 55.4 °F 51.8 °F 88% 29.79 in 10.0 mi WSW 5.8 mph - N/A   Overcast